Back to catalog

GORIZONT 22

AliveCommunicationsGEO
NORAD 20953·PAYLOAD·🇷🇺 Russia

Launched Nov 23, 1990 from Baikonur Cosmodrome

Loading…

TLE

FreshSource: Space-Track

Epoch: Sep 14, 2026, 14:25 UTC

1 20953U 90102A   26257.60118779 -.00000353  00000-0  00000-0 0  9994
2 20953  12.6439 336.6051 0004586 344.0097  21.1532  1.00227101131272

Track GORIZONT 22 in real time with AllMySat

Download on the App Store